PRAETORIAN SDA_609

Last updated on Sun Jun 21 2026 00:03:46 GMT+0000 (Coordinated Universal Time)

1 65572U 25203H 26170.97224787 -.00000045 00000+0 -50798-4 0 9992 2 65572 81.3047 8.2110 0006881 177.4428 182.6765 13.84210630 39081
UTC large
Height (km)
Speed (km/s)
/
Latitude / Longitude
Inclination (degrees)
Orbital Period (minutes)
Azimuth
Elevation
Range (km)
Doppler Factor

Next 0 passes for location: London (51.5072 / 0.1276)

No passes found over London.
PRAETORIAN SDA_609